Flag for Mozambique Weather past 2 weeks in Maputo, Mozambique

Now
79 °F

Scattered clouds.


Feels Like: 81 °F
Forecast: 64 / 84 °F
Wind: 10 mph from East

Location: Maputo / Mavalane

Current Time: May 23, 2015 at 3:05:52 PM

Latest Report: May 23, 2015 at 2:00 PM


Visibility: N/A

Pressure: 30.18 "Hg

Humidity: 61%

Dew point: 64 °F

Location of MaputoLocation

Historic Weather in Maputo — Graph

°F

Maputo temperature yesterday

Maximum temperature yesterday: 82 °F (at 1:00 PM)
Minimum temperature yesterday: 64 °F (at 3:00 AM)
Average temperature yesterday: 73 °F

Past Weeks' High & Low Weather Summary

 TemperatureHumidityPressure
High93 °F (May 16, 1:00 PM)100% (May 11, 7:00 PM)30.36 "Hg (May 11, 7:00 PM)
Low57 °F (May 12, 6:00 AM)32% (May 16, 1:00 PM)29.86 "Hg (May 14, 1:00 PM)
Average73 °F75%30.13 "Hg
* Reported May 8 3:00 PM — May 23 2:00 PM, Maputo, Weather by CustomWeather, © 2015

Note: Actual official high and low records may vary slightly from our data, if they occured in-between our weather recording intervals... More about our weather records

Advertising

Maputo weather history for previous 24 hours

 ConditionsComfort  
Time TempWeatherWind HumidityBarometerVisibility
2:00 PM
Sat, May 23
79 °FScattered clouds.10 mph61%30.18 "HgN/A
1:00 PM82 °FScattered clouds.3 mph45%30.21 "HgN/A
12:00 PM81 °FScattered clouds.3 mph51%30.24 "HgN/A
11:00 AM77 °FScattered clouds.3 mph61%30.27 "HgN/A
10:00 AM75 °FPassing clouds.5 mph69%30.30 "HgN/A
9:00 AM72 °FPassing clouds.6 mph78%30.30 "HgN/A
8:00 AM68 °FSunny.6 mph88%30.30 "Hg10 mi
7:00 AM64 °FPassing clouds.5 mph94%30.30 "HgN/A
6:00 AM63 °FPassing clouds.5 mph94%30.27 "HgN/A
5:00 AM63 °FPassing clouds.6 mph94%30.27 "HgN/A
10:00 PM
Fri, May 22
72 °FClear.3 mph88%30.18 "Hg10 mi
8:00 PM73 °FPassing clouds.6 mph78%30.21 "HgN/A
7:00 PM73 °FPassing clouds.5 mph78%30.33 "HgN/A
6:00 PM75 °FPassing clouds.7 mph78%30.30 "HgN/A
5:00 PM75 °FPassing clouds.10 mph74%30.30 "HgN/A
4:00 PM79 °FPassing clouds.14 mph61%30.27 "HgN/A
3:00 PM81 °FPassing clouds.14 mph66%30.27 "HgN/A
Weather by CustomWeather, © 2015

See weather overviewHow to use our weather pages